GFSSW_850_spd_231.txt.gz
Wind_Speed
14 14 14 14 13 12 10 8 6 5 5 4 5 7 9 10 11 13 14 6 7 9 10 11 8 10 9 17 16 19 3 7 17 14 2 18 11 25 21 22 10 13 9 24 21
13 13 13 13 13 12 11 9 7 4 3 3 4 6 8 11 13 17 9 6 10 13 15 10 7 10 19 16 16 8 2 11 18 13 7 4 10 17 11 19 16 17 26 37 20
15 13 12 13 13 12 12 10 8 5 3 2 3 6 9 10 10 8 9 9 13 10 9 9 11 15 19 23 25 21 8 15 25 25 20 8 14 17 10 11 28 34 28 23 18
20 16 14 13 12 12 11 11 9 5 2 2 5 7 9 6 3 4 4 9 11 8 10 4 8 16 8 8 22 7 24 25 30 27 15 4 11 16 14 15 38 41 28 17 14
22 20 17 14 12 11 11 11 9 4 3 4 7 9 9 5 11 6 2 3 6 6 7 9 19 19 8 11 21 7 14 21 18 16 21 5 6 11 41 48 38 33 35 28 26
21 21 20 17 13 11 11 11 8 4 4 6 8 10 6 7 5 3 3 6 3 2 3 11 15 16 10 10 5 12 10 5 9 17 13 6 1 10 36 44 40 40 33 27 23
20 20 20 19 15 11 10 9 4 5 6 8 9 10 8 13 6 0 3 2 6 8 15 14 10 8 13 9 16 13 6 7 9 15 1 4 5 14 38 44 38 37 31 21 18
21 21 20 19 17 11 8 7 4 5 7 9 9 9 9 4 6 8 5 5 5 5 9 9 3 10 12 12 9 3 5 5 11 10 5 10 4 13 36 43 34 32 29 27 21
22 21 20 19 18 13 9 7 6 7 9 9 9 6 11 8 10 11 8 11 7 5 6 6 3 10 16 5 6 5 8 9 11 16 6 9 8 25 34 37 29 28 27 24 21
23 22 20 18 18 14 10 11 10 10 10 11 9 9 12 16 5 9 8 8 5 6 8 10 6 3 5 1 7 5 6 7 8 6 7 12 10 10 28 34 27 27 26 26 23
24 23 21 18 17 15 10 13 9 4 14 13 9 12 11 13 10 6 8 5 10 9 6 15 2 7 13 11 3 6 7 9 5 9 10 13 9 8 25 30 28 27 25 24 21
24 25 22 19 16 14 11 11 10 14 7 18 24 23 26 8 10 13 11 9 14 8 11 6 11 12 0 6 7 8 7 9 4 7 7 11 8 9 17 18 28 28 24 21 17
25 25 24 19 15 13 11 17 8 12 10 23 25 24 15 8 15 18 13 19 13 9 10 11 8 5 5 6 2 5 5 7 6 3 1 10 4 12 13 27 28 27 25 21 17
26 24 24 22 10 6 8 1 6 11 3 7 12 25 16 15 10 20 10 17 11 9 8 6 4 5 1 5 5 2 8 9 6 5 2 5 4 6 11 13 18 23 23 18 13
26 24 22 20 15 16 6 7 6 3 3 9 10 8 18 13 11 9 7 8 8 8 2 6 3 5 2 4 8 5 9 7 6 8 6 10 5 2 8 9 12 18 19 17 18
26 22 24 16 15 8 3 4 3 1 6 7 10 7 8 17 10 11 8 7 13 6 7 6 1 3 4 6 6 6 4 6 5 2 3 10 4 5 5 8 8 20 22 20 15
26 21 21 15 11 2 9 12 1 4 4 9 13 12 10 9 9 9 7 6 4 1 4 8 7 4 9 5 7 5 4 3 4 3 6 6 7 1 10 11 17 18 22 16 11
25 20 12 10 13 1 7 3 5 10 9 3 14 13 10 9 9 8 7 6 8 3 3 3 6 6 6 5 4 6 2 3 3 3 4 6 3 2 4 20 16 25 20 14 9
26 14 8 5 11 4 6 3 6 6 5 7 7 10 8 10 7 7 8 4 3 5 4 5 5 6 7 6 4 6 4 3 2 5 5 5 3 3 6 10 20 18 14 9 5
24 17 6 6 7 7 1 6 7 13 16 6 6 2 6 10 7 6 8 8 7 8 9 2 3 6 1 6 6 8 5 5 4 2 3 2 3 6 7 7 7 10 9 9 10
17 8 6 10 9 9 4 6 11 21 14 3 6 8 9 5 4 3 8 9 7 7 7 3 3 5 7 6 4 5 4 4 3 2 1 2 2 6 13 11 11 19 18 13 11
6 3 6 12 4 5 5 6 11 18 7 2 5 6 7 8 1 2 5 4 8 11 4 3 3 2 4 10 1 4 4 1 5 5 1 3 3 4 13 18 18 19 19 15 11
18 7 5 10 3 5 8 14 22 4 4 4 5 7 5 6 4 9 6 6 9 6 3 1 0 2 7 8 4 4 5 4 3 3 1 3 4 7 18 17 24 25 18 15 11
7 4 5 13 14 6 7 12 15 10 5 10 6 7 4 4 3 2 8 3 10 6 7 4 1 5 6 7 1 3 6 4 5 4 4 4 6 4 8 10 17 21 19 16 17
3 3 9 4 5 12 8 8 11 7 6 5 4 5 7 0 3 4 9 9 9 6 3 4 1 2 5 7 11 14 2 5 5 5 5 2 7 6 8 11 19 15 14 16 17
7 8 13 16 15 10 7 6 8 12 6 4 6 7 7 4 5 4 6 4 5 2 4 2 0 3 6 10 12 11 7 4 6 5 2 9 8 9 18 16 19 17 17 17 14
12 13 7 10 9 6 5 7 11 10 16 15 7 3 7 8 19 20 17 13 9 8 6 7 4 2 4 7 10 8 2 4 4 4 6 4 8 10 10 16 15 14 13 14 9

GFSSW_850_spd_234.txt.gz
Wind_Speed
14 14 14 13 13 13 12 10 8 6 5 5 6 7 10 11 12 14 16 9 6 3 7 9 9 3 4 7 9 7 3 5 3 2 7 5 4 4 8 15 8 7 17 29 34
17 15 14 13 12 12 12 11 9 7 5 4 5 7 9 11 13 16 8 8 5 2 8 9 5 4 7 5 3 5 4 7 8 5 7 16 7 16 8 9 19 31 35 34 36
20 18 16 13 12 11 11 11 10 7 5 4 5 7 10 11 10 3 3 6 7 5 9 6 6 8 5 11 18 3 6 8 18 27 15 11 15 9 20 4 17 39 35 32 32
20 20 19 16 14 11 11 11 10 7 4 4 6 9 10 8 2 3 4 5 7 7 6 6 6 3 4 4 7 5 21 21 27 29 10 5 16 14 24 17 26 34 33 19 15
19 19 19 18 16 12 10 10 9 6 5 6 8 9 10 5 8 5 5 3 6 6 6 10 8 7 3 5 6 6 14 26 32 18 8 31 21 25 24 30 30 22 16 15 14
20 19 19 18 17 13 10 9 7 4 6 8 9 10 8 4 3 2 1 5 6 5 7 9 7 13 13 8 5 8 10 15 5 5 11 34 18 19 16 25 27 26 21 16 14
21 20 20 19 18 15 10 8 5 4 6 8 9 10 12 11 5 1 4 4 1 5 9 8 12 7 7 7 7 14 2 5 2 3 18 38 17 19 29 28 30 25 20 16 13
22 21 20 19 18 16 10 7 5 6 8 9 9 11 8 4 7 9 5 3 5 6 8 9 9 9 5 9 11 6 4 2 4 4 2 19 12 15 21 32 23 22 20 15 13
23 22 21 20 18 15 11 9 8 8 9 10 8 6 10 4 11 10 9 11 8 3 5 6 8 3 5 3 5 6 3 3 9 6 5 9 15 16 20 28 23 22 18 17 14
24 23 22 20 19 16 12 11 10 11 12 10 10 7 11 8 10 12 12 12 5 8 10 11 3 3 4 5 3 4 3 4 9 0 15 18 14 18 22 26 27 26 23 21 19
24 25 23 20 19 17 11 9 8 4 6 11 7 14 14 8 8 10 9 7 10 9 4 3 4 5 9 8 8 6 2 4 7 11 16 18 17 15 20 23 25 23 25 23 21
25 24 24 20 18 15 12 8 7 4 8 16 21 23 23 15 11 12 12 9 4 5 1 5 5 12 8 8 7 2 1 4 4 1 21 16 12 7 10 15 23 25 25 24 21
25 24 24 21 18 10 10 8 4 16 5 17 22 20 22 11 21 8 17 16 5 3 6 6 10 2 7 0 2 2 3 2 1 12 20 19 7 7 7 15 18 20 23 22 21
25 24 23 22 9 6 5 7 6 12 3 6 7 14 17 16 5 12 20 8 4 8 9 7 17 8 2 2 3 4 3 5 6 4 5 0 4 5 8 7 13 22 25 23 20
25 23 21 21 16 15 3 9 5 4 2 5 7 7 13 12 3 8 20 13 5 5 1 7 2 2 6 2 4 2 2 3 2 4 4 1 5 4 7 5 7 13 22 21 21
25 21 22 18 17 9 8 6 2 5 5 4 9 7 6 10 5 17 10 7 6 3 2 6 3 5 4 4 6 1 5 8 6 4 4 7 6 6 7 8 8 15 23 21 21
25 20 21 16 11 2 6 2 4 3 5 5 7 8 8 7 4 6 5 3 4 3 4 7 3 2 3 5 9 9 7 4 5 5 5 7 5 4 10 8 14 19 21 21 18
25 20 16 13 8 7 1 5 3 4 6 3 5 9 8 6 5 10 7 4 4 3 3 3 6 3 2 5 4 2 6 5 3 2 5 6 3 4 5 17 23 27 22 19 17
24 16 9 4 11 6 3 3 6 5 4 8 3 7 5 8 7 6 9 9 6 7 6 3 3 4 4 3 5 3 1 5 5 2 2 3 3 4 7 9 18 22 19 17 16
22 14 5 7 10 5 4 5 5 4 9 10 2 2 5 6 8 7 8 3 7 5 11 4 4 2 4 9 5 3 2 4 4 1 2 3 4 5 9 11 8 12 16 16 14
14 6 6 11 10 4 4 6 5 15 16 4 2 2 1 2 5 6 5 4 3 4 10 5 4 5 4 2 1 5 3 5 4 4 4 2 4 5 17 14 14 19 18 16 13
9 2 7 16 3 2 3 5 5 13 22 3 3 2 1 4 5 3 4 2 6 8 5 1 5 2 2 6 3 4 2 5 5 3 1 3 5 5 10 22 24 22 17 13 21
19 7 4 16 2 3 6 5 7 14 10 3 2 2 1 1 2 4 4 6 10 5 6 4 2 3 8 7 5 5 0 4 5 3 4 4 5 5 9 13 20 22 25 25 28
7 4 6 1 2 2 5 5 4 14 7 4 1 4 5 2 2 4 4 6 6 9 10 7 3 6 7 6 2 2 2 1 6 4 4 5 3 3 7 12 20 23 26 29 23
4 3 7 3 4 6 3 4 5 6 9 6 1 3 3 2 2 5 4 2 7 4 5 5 3 2 2 3 2 2 6 7 5 5 6 4 9 9 8 9 20 27 27 22 16
6 7 10 9 13 6 4 5 3 8 5 9 3 7 1 4 5 6 8 3 4 1 3 3 2 2 3 4 6 5 6 7 5 5 8 10 6 4 20 24 26 28 24 20 14
8 4 3 6 7 4 3 7 9 10 9 1 2 5 6 3 13 12 17 16 14 9 4 5 5 3 4 2 4 5 3 3 3 3 11 5 7 12 10 18 24 22 18 16 11

GFSSW_850_spd_237.txt.gz
Wind_Speed
16 14 13 12 13 13 13 12 10 9 7 7 7 8 10 11 12 15 16 9 5 5 6 5 6 4 3 2 4 5 4 1 5 4 4 6 3 7 5 9 6 6 14 23 23
18 17 15 13 12 12 12 12 11 10 8 6 6 7 10 12 13 14 7 7 7 5 3 5 2 2 0 1 3 4 4 9 8 5 1 3 6 11 6 9 15 26 25 25 24
18 18 17 16 14 12 11 12 11 10 8 6 6 8 10 12 10 2 1 5 8 6 4 4 2 1 0 2 4 5 6 5 15 17 8 3 14 4 21 6 16 33 30 27 26
19 18 18 18 17 14 12 11 11 9 6 6 7 9 11 9 1 1 3 3 8 6 5 3 2 1 2 1 3 2 10 11 26 3 5 8 17 9 3 12 24 25 22 24 21
19 19 18 18 17 16 12 11 10 8 6 7 8 10 11 6 5 2 6 4 7 7 5 6 2 2 2 2 1 4 6 13 26 2 16 26 19 12 23 30 24 21 23 19 16
20 20 19 18 17 16 14 11 10 7 6 7 8 9 9 4 3 1 2 3 5 5 4 6 3 6 6 3 4 4 10 12 16 21 23 25 6 9 11 21 22 19 16 12 9
21 20 20 19 18 15 14 11 9 7 7 8 9 10 14 10 3 3 3 2 1 1 2 4 8 5 1 4 3 7 4 3 17 13 8 26 8 7 18 19 20 19 17 14 11
22 21 20 19 18 16 13 11 9 8 9 9 9 10 8 4 7 9 5 4 3 7 4 3 6 8 4 5 7 3 4 3 6 14 11 6 6 7 14 21 18 16 15 13 12
24 23 21 20 19 16 13 11 9 10 11 11 9 7 9 8 12 5 8 6 5 9 5 8 7 3 3 4 5 6 2 3 4 13 7 4 12 10 14 16 13 12 13 11 12
26 24 22 20 19 17 13 11 8 11 12 11 11 7 10 3 8 11 9 10 11 4 8 6 1 3 4 4 3 2 4 4 5 2 7 9 8 12 13 13 13 12 12 12 14
26 25 23 21 20 17 12 8 6 5 8 9 8 10 12 9 5 10 13 10 9 2 1 3 4 4 7 5 3 2 2 6 7 6 9 11 16 10 13 14 12 10 10 10 12
26 25 24 21 19 16 10 5 2 3 10 16 20 22 22 20 9 10 11 9 3 3 1 5 5 9 5 5 6 3 4 4 10 11 12 14 12 6 10 8 13 14 13 11 12
26 25 24 20 19 9 6 4 4 9 4 13 15 16 16 8 16 17 13 11 3 1 3 5 9 3 2 2 4 2 2 1 7 14 15 16 6 5 2 9 12 13 12 12 12
25 24 24 22 11 6 4 2 12 3 4 6 4 8 11 9 6 15 21 7 2 7 4 6 6 6 3 3 5 4 3 8 12 7 6 5 4 5 7 5 10 16 16 14 13
25 23 21 19 18 14 7 10 6 4 3 2 4 4 11 10 2 8 14 17 5 4 3 7 4 7 5 1 4 3 3 2 4 4 5 3 4 2 8 6 7 16 19 16 15
25 23 22 18 17 8 4 3 5 5 6 4 7 5 6 6 4 1 9 9 5 2 1 6 4 3 5 3 4 4 5 8 5 3 2 1 5 5 9 9 8 17 21 19 19
26 21 21 18 11 3 3 4 4 3 5 3 5 5 6 5 3 4 5 4 4 3 2 4 3 2 3 5 5 9 7 3 4 4 5 4 4 4 11 6 17 20 24 22 21
26 22 17 15 11 9 5 4 3 4 6 5 2 5 8 6 5 5 4 3 3 4 3 3 4 3 1 4 4 4 6 5 4 3 4 5 1 2 4 7 21 27 26 24 23
25 18 11 5 12 14 8 3 7 6 3 6 4 5 5 5 7 5 8 6 8 8 6 4 2 3 5 3 4 3 3 3 6 3 3 1 3 1 4 8 22 25 27 25 22
25 16 1 4 13 13 4 6 5 5 5 3 2 4 6 1 5 5 8 4 4 6 7 6 4 2 3 6 7 4 5 3 3 2 3 3 3 4 6 9 10 16 27 25 22
17 7 3 10 11 3 3 6 5 9 9 3 4 2 2 3 5 7 8 2 3 4 2 5 5 4 3 2 4 2 2 6 4 4 4 1 5 5 13 16 18 22 27 26 24
9 2 5 13 2 2 3 5 3 9 9 5 4 4 4 2 2 3 5 2 6 11 6 1 5 3 2 5 4 3 4 5 5 4 1 3 5 2 9 20 22 22 21 21 24
17 6 3 9 2 2 5 4 6 5 5 4 3 2 1 2 3 2 3 5 3 4 7 6 2 3 6 6 5 2 2 4 5 3 5 5 5 5 10 15 21 21 20 22 25
8 4 5 5 6 3 3 5 4 7 7 7 6 3 3 1 2 3 3 7 6 6 9 8 3 6 7 5 3 3 2 4 5 3 4 6 4 3 6 11 17 23 25 27 25
7 3 4 3 4 4 2 5 6 6 6 11 2 2 4 3 2 4 3 3 6 3 5 5 4 2 2 3 2 3 5 2 7 6 6 6 9 8 8 10 22 29 28 28 23
7 7 9 5 9 4 5 5 4 5 3 5 2 2 3 5 6 7 7 2 5 3 3 4 2 2 1 1 1 3 6 7 5 4 2 4 3 4 11 19 25 29 31 26 21
8 4 5 5 5 2 2 5 4 9 8 7 3 3 3 3 7 17 16 13 11 8 3 4 5 3 3 4 4 5 6 4 3 4 7 5 6 11 9 18 24 28 28 26 21

GFSSW_850_spd_240.txt.gz
Wind_Speed
17 17 16 15 14 13 13 13 13 12 10 9 8 7 8 10 12 14 15 7 4 6 6 5 2 2 4 6 6 6 5 3 5 7 4 4 5 4 5 7 1 1 8 12 15
18 17 17 17 16 14 13 12 13 12 11 8 7 7 9 12 13 11 4 5 7 5 3 2 3 5 4 4 5 5 4 10 6 8 3 1 4 11 5 4 4 14 18 18 17
18 18 17 17 17 16 13 12 12 12 10 7 7 9 11 13 7 3 4 4 8 7 2 2 5 4 3 4 5 5 6 5 5 10 6 4 7 6 15 2 2 16 21 18 19
19 18 18 17 17 17 15 12 11 11 8 7 8 10 12 9 2 1 3 2 8 5 3 3 5 3 3 2 4 1 8 9 3 9 10 13 15 9 7 7 17 16 16 19 16
20 19 18 18 17 16 16 13 11 9 6 7 9 10 11 5 3 2 5 2 8 7 5 7 4 2 2 2 3 4 4 1 7 7 10 20 13 11 19 18 17 14 15 13 12
21 20 20 18 17 16 15 14 11 8 6 7 9 10 10 4 1 3 4 2 4 6 8 7 2 2 2 2 4 4 6 4 12 16 12 20 10 8 6 15 15 13 12 11 10
23 22 21 20 18 17 15 14 10 8 7 7 9 11 14 10 3 2 2 4 5 5 3 1 3 2 1 2 2 2 5 8 5 5 8 17 8 7 11 16 16 14 12 11 14
24 23 22 21 19 17 15 14 10 8 8 9 10 11 8 4 6 6 4 4 2 1 2 5 4 5 3 2 4 4 5 5 5 3 4 4 4 10 12 17 14 12 11 10 10
26 25 23 21 21 18 15 14 10 8 9 10 10 7 8 5 9 6 7 5 1 5 5 5 6 1 0 4 4 6 3 3 1 3 2 4 6 12 15 19 16 12 12 12 12
27 26 25 22 20 19 16 12 10 8 9 9 11 6 8 1 3 6 8 8 6 5 3 2 1 3 4 4 3 2 1 3 3 2 7 5 9 13 15 19 17 15 14 14 15
27 26 25 23 21 18 14 8 6 4 7 9 3 13 20 12 8 4 8 9 6 1 2 3 4 5 9 6 3 2 3 6 2 2 7 7 14 11 15 18 16 14 13 14 15
28 27 25 23 20 16 7 1 2 4 9 15 19 21 21 17 7 4 3 6 5 4 3 5 4 7 5 3 3 3 7 5 6 6 8 12 10 7 8 7 10 12 12 13 14
28 27 26 22 19 7 6 4 1 8 4 10 15 17 16 11 8 11 9 8 3 4 5 5 5 5 3 2 5 2 5 7 6 8 11 12 5 3 1 5 7 7 7 8 8
27 26 26 22 10 7 2 4 7 2 4 6 4 7 11 8 4 8 12 9 1 8 5 5 4 4 3 3 5 3 5 9 14 4 5 2 4 4 4 4 7 8 10 11 11
26 25 24 21 19 11 5 7 3 3 3 3 4 3 14 11 3 7 13 12 7 4 4 5 4 4 4 2 4 4 7 7 4 4 6 1 4 4 5 7 8 15 17 15 14
26 24 25 21 18 8 7 3 9 5 6 4 6 6 5 5 2 3 5 9 2 3 1 5 3 1 4 3 0 8 6 7 5 3 2 2 5 4 6 9 6 17 22 18 17
27 23 23 20 13 4 2 8 5 3 5 2 3 4 3 4 2 3 5 5 5 3 2 5 3 3 4 6 6 6 6 3 4 4 5 1 4 6 6 4 12 21 27 22 21
27 24 20 16 13 12 7 4 4 4 6 5 3 2 8 5 4 2 4 3 1 5 3 4 4 2 2 3 7 3 6 5 4 2 4 2 4 4 3 7 12 26 28 24 24
28 22 11 6 11 14 8 3 8 6 3 5 6 4 3 3 4 3 6 7 8 8 6 4 2 3 5 2 3 3 4 4 6 3 3 3 4 3 3 1 17 25 27 27 26
29 20 2 3 7 18 3 7 5 4 4 3 2 3 7 5 5 6 7 4 6 9 3 7 4 2 2 2 11 4 5 4 3 1 3 4 4 4 5 7 6 15 27 28 27
20 8 9 7 15 6 4 6 5 6 4 2 1 5 6 6 8 6 7 3 5 4 5 5 4 3 1 3 5 2 2 7 5 4 5 2 5 6 8 12 16 21 29 33 28
12 3 3 10 2 2 3 5 2 3 2 5 3 8 5 5 4 6 10 5 3 10 9 2 6 4 1 4 3 2 4 5 5 4 1 3 6 2 5 16 22 23 32 30 27
19 7 3 6 2 2 4 3 3 3 4 4 5 6 3 5 4 3 3 2 3 5 9 7 2 3 6 6 4 3 3 5 5 3 5 5 5 2 1 12 20 25 29 27 26
9 4 5 5 5 2 4 4 4 5 5 4 6 3 1 2 4 5 3 4 2 3 10 8 4 6 7 6 4 3 3 4 5 4 4 6 5 5 4 8 17 25 28 27 28
9 3 4 4 4 5 2 3 4 5 4 3 3 5 6 3 3 3 2 1 4 2 4 4 5 3 1 3 3 3 4 5 6 5 6 6 7 7 8 10 19 28 26 28 29
8 7 10 5 10 4 4 2 2 6 3 4 3 2 4 6 7 9 6 4 5 4 3 4 2 2 2 0 2 2 6 6 6 3 5 3 6 2 6 16 20 26 29 30 28
12 6 5 6 6 3 3 4 3 6 7 13 8 3 2 4 5 4 7 9 6 8 4 4 6 4 3 2 4 4 6 4 4 4 5 6 7 8 4 14 25 29 31 29 27

GFSSW_850_spd_246.txt.gz
Wind_Speed
16 15 15 15 15 15 14 13 11 10 10 8 6 6 6 7 10 12 12 9 11 13 10 8 6 7 8 10 8 7 10 10 9 8 10 7 6 6 8 14 8 7 12 14 13
17 16 16 15 15 15 15 14 12 10 9 7 5 6 7 9 10 9 7 8 10 17 11 12 10 10 12 11 9 12 12 15 1 7 8 8 7 12 9 14 17 18 15 14 13
18 17 17 16 16 15 15 14 12 11 9 6 5 6 8 9 2 3 3 8 11 13 9 10 9 11 10 10 11 13 12 4 7 9 8 7 12 8 14 11 13 17 16 13 13
19 19 18 17 16 15 15 14 13 11 9 5 6 7 8 3 1 3 1 8 13 12 8 8 11 12 10 10 10 8 8 7 6 10 8 8 14 12 3 16 17 16 15 13 12
19 20 20 19 18 16 15 14 12 11 8 6 6 7 7 5 3 3 4 8 13 10 8 10 13 10 10 9 11 11 7 8 6 6 10 13 12 15 18 17 17 17 15 14 12
21 20 20 20 19 18 16 14 12 11 7 6 6 7 6 9 4 2 5 9 10 9 8 11 7 6 6 8 10 6 5 6 5 11 13 14 20 7 10 16 16 14 14 12 11
22 22 21 21 20 19 17 15 12 10 7 7 7 8 9 8 4 4 8 9 9 8 10 6 4 8 8 8 6 8 9 9 9 13 13 20 11 9 16 15 15 14 13 12 10
23 22 22 22 21 20 17 15 11 9 8 8 7 8 6 7 8 7 8 7 9 7 5 3 4 4 7 5 7 10 9 12 10 13 12 16 14 12 14 15 13 13 12 10 10
24 23 23 22 22 21 18 14 10 8 8 9 7 5 5 6 7 9 10 6 7 6 5 6 3 6 8 12 11 9 12 10 10 5 13 15 16 15 14 13 12 11 10 9 9
25 24 23 22 22 20 18 12 7 6 7 8 10 6 8 9 7 8 12 10 7 7 7 7 8 9 11 11 12 13 7 8 12 9 10 11 14 14 14 13 13 12 11 10 9
26 25 24 23 22 21 13 6 4 3 10 11 2 5 7 5 4 9 12 12 9 11 12 12 10 12 14 14 5 2 7 8 7 2 10 8 12 12 13 13 13 13 12 12 11
26 26 24 22 21 17 3 4 4 3 9 15 18 16 11 4 6 12 14 15 11 12 8 8 13 9 4 6 9 6 8 10 6 4 9 10 9 9 13 14 14 14 14 13 13
26 26 25 22 20 8 10 7 6 6 8 9 15 16 16 14 13 16 20 18 13 12 11 14 7 5 12 11 12 10 12 12 8 10 2 9 10 13 13 12 14 15 14 13 14
25 26 25 22 10 11 8 5 3 7 5 9 8 8 14 15 12 14 21 15 9 12 12 9 4 8 11 10 15 11 6 9 12 14 5 15 4 16 16 15 17 19 17 16 15
26 24 24 21 21 10 7 9 7 2 5 6 7 5 12 24 14 15 19 14 13 11 7 7 11 12 12 12 13 10 10 11 14 6 9 15 7 10 16 17 20 22 20 18 17
27 24 24 21 18 11 12 9 3 6 6 5 7 11 15 22 10 16 15 12 9 8 10 4 1 8 3 5 5 13 12 10 7 5 10 8 7 8 11 16 18 23 21 19 18
26 24 21 18 6 5 3 6 6 8 3 7 7 10 17 15 13 16 16 17 12 12 12 8 10 6 14 12 14 11 13 8 8 7 1 4 5 7 3 2 6 20 23 22 19
25 23 19 14 11 11 6 8 10 1 10 2 2 7 15 17 16 14 17 17 17 12 11 12 11 13 8 9 11 14 9 7 4 4 3 5 5 4 6 3 5 7 21 24 21
25 21 9 9 5 12 11 13 7 10 2 5 5 10 14 16 15 17 17 18 17 14 8 9 9 7 3 4 4 10 9 5 3 1 8 1 4 10 7 5 9 9 20 23 23
25 12 4 10 5 12 10 17 14 3 4 4 9 3 13 17 15 19 18 17 16 17 14 7 8 9 6 8 5 4 10 5 7 4 6 5 6 4 8 9 9 12 18 22 22
15 6 7 7 10 9 10 17 17 8 6 4 3 4 3 8 20 16 16 8 19 17 12 5 8 9 8 10 12 6 8 1 4 4 5 6 4 6 2 1 8 12 16 21 22
9 3 5 2 7 5 10 12 5 14 12 8 5 6 8 8 12 20 20 18 13 16 16 11 7 12 15 4 3 5 5 8 6 6 3 6 10 5 5 5 5 7 14 18 20
14 5 5 1 5 6 5 10 12 13 14 12 11 6 6 7 5 16 18 9 11 15 15 10 8 8 6 5 5 9 8 5 2 2 8 8 4 8 8 8 8 10 15 18 20
8 4 1 1 2 6 7 11 8 6 12 16 16 16 16 14 10 6 14 6 11 15 3 14 11 14 11 13 14 14 12 12 10 6 9 9 12 6 9 9 9 12 16 19 21
6 4 4 4 1 10 6 6 8 5 5 8 10 15 16 15 15 13 10 7 8 8 9 8 13 15 15 6 10 13 14 14 13 12 10 12 12 10 8 6 9 13 17 19 21
7 7 9 10 9 9 3 3 8 8 5 5 7 9 9 14 12 8 11 9 8 11 11 7 9 11 10 9 10 12 11 12 12 11 12 13 15 11 4 3 10 14 17 19 21
8 5 5 7 5 5 1 5 5 10 4 5 8 12 9 6 13 14 9 2 2 6 11 10 9 12 11 10 9 9 11 12 10 8 9 11 6 4 3 6 10 13 15 17 19